This is the latest recevied weather packets stored in our database for station/object KA6UPU-1. If no packets are shown the sender has not sent any weather packets the latest 10 day(s).
| Time | Temp. | Humidity | Pressure | Rain* | Wind** | Luminosity | Snow |
|---|---|---|---|---|---|---|---|
| 1788114702 | 23.33° C | 56% | 1013.4 hPa | 0 mm | - | - | - |
| 1788114402 | 23.33° C | 57% | 1013.4 hPa | 0 mm | - | - | - |
| 1788114101 | 22.78° C | 58% | 1013.5 hPa | 0 mm | - | - | - |
| 1788113501 | 22.22° C | 59% | 1013.5 hPa | 0 mm | - | - | - |
| 1788113201 | 21.67° C | 60% | 1013.5 hPa | 0 mm | - | - | - |
| 1788112601 | 20.56° C | 62% | 1013.6 hPa | 0 mm | - | - | - |
| 1788111703 | 20.56° C | 65% | 1013.7 hPa | 0 mm | - | - | - |
| 1788110817 | 20° C | 66% | 1013.8 hPa | 0 mm | - | - | - |
| 1788110502 | 19.44° C | 67% | 1013.7 hPa | 0 mm | - | - | - |
| 1788110201 | 19.44° C | 68% | 1013.7 hPa | 0 mm | - | - | - |
| 1788109901 | 19.44° C | 68% | 1013.8 hPa | 0 mm | - | - | - |
| 1788109601 | 18.89° C | 69% | 1013.7 hPa | 0 mm | - | - | - |
| 1788109301 | 18.89° C | 69% | 1013.7 hPa | 0 mm | - | - | - |
| 1788109001 | 18.89° C | 69% | 1013.7 hPa | 0 mm | - | - | - |
| 1788108703 | 18.89° C | 70% | 1013.8 hPa | 0 mm | - | - | - |
| 1788108401 | 18.33° C | 71% | 1013.7 hPa | 0 mm | - | - | - |
| 1788108101 | 18.33° C | 72% | 1013.6 hPa | 0 mm | - | - | - |
| 1788107801 | 17.78° C | 72% | 1013.7 hPa | 0 mm | - | - | - |
| 1788107201 | 17.78° C | 73% | 1013.7 hPa | 0 mm | - | - | - |
| 1788106902 | 17.78° C | 75% | 1013.7 hPa | 0 mm | - | - | - |
| 1788106602 | 17.22° C | 75% | 1013.5 hPa | 0 mm | - | - | - |
| 1788106302 | 17.22° C | 77% | 1013.6 hPa | 0 mm | - | - | - |
| 1788106001 | 16.67° C | 77% | 1013.6 hPa | 0 mm | - | - | - |
| 1788105701 | 16.67° C | 77% | 1013.6 hPa | 0 mm | - | - | - |
| 1788105401 | 16.67° C | 78% | 1013.6 hPa | 0 mm | - | - | - |
* Rain latest hour (hover to see other rain measurements)
** Current wind speed in m/s (hover to see current wind gust speed)